Regional Weather Roundup
Issued by NWS

Home | Current Version | Previous Version | Graphics & Text | Print | Product List | Glossary On
Versions: 1 2 3 4 5 6 7 8 9 10 11 12 13 14 15 16 17 18 19 20 21 22 23 24 25 26 27 28 29 30 31 32 33 34 35 36 37 38 39 40 41 42 43 44 45 46 47 48 49 50
000
ASUS45 KCYS 260410
RWRWY

WYOMING REGIONAL WEATHER ROUNDUP
NATIONAL WEATHER SERVICE CHEYENNE WY
900 PM MST TUE NOV 25 2014

NOTE:  "FAIR" INDICATES FEW OR NO CLOUDS BELOW 12,000 FEET
WITH NO SIGNIFICANT WEATHER AND/OR OBSTRUCTIONS TO VISIBILITY.

WYZ001-260500-
YELLOWSTONE NATIONAL PARK

CITY           SKY/WX    TMP DP  RH WIND       PRES   REMARKS
LK YELLOWSTONE   N/A     30  26  85 VRB7      30.06S WCI  23
W YELLOWSTONE  NOT AVBL

$$
WYZ002>013-054>058-071-098>099-260500-
NORTHERN WYOMING

CITY           SKY/WX    TMP DP  RH WIND       PRES   REMARKS
JACKSON        CLOUDY    37  36  93 W7        30.06  WCI  32
CODY           CLOUDY    25  23  93 N5        30.13S WCI  19
GREYBULL       CLOUDY    30  25  81 W24       30.12R WCI  16
WORLAND        LGT SNOW  29  26  89 NW13      30.14R FOG     WCI  19
SHERIDAN       LGT SNOW  29  25  85 NW18      30.12R FOG     WCI  16
BUFFALO        LGT SNOW  27  20  75 NW18G29   30.08R WCI  14
GILLETTE       CLOUDY    28  24  85 NW22G35   30.03R WCI  14
HULETT           N/A    N/A N/A N/A MISG        N/A
NEWCASTLE      FLURRIES  30  25  80 NW21G29   30.00R WCI  17

$$
WYZ014>020-022>026-101>103-260500-
CENTRAL WYOMING

CITY           SKY/WX    TMP DP  RH WIND       PRES   REMARKS
BIG PINEY      CLOUDY   N/A N/A N/A CALM      30.09R
PINEDALE       LGT SNOW  30  30 100 NW3       30.09S
DUBOIS         LGT SNOW  32  32 100 NW10      30.00R WCI  24
LANDER         LGT SNOW  30  28  92 E3        30.07S FOG
RIVERTON       LGT SNOW  30  28  92 NE6       30.10R FOG     WCI  24
CASPER         LGT SNOW  25  21  85 E9        30.11R FOG     WCI  15
DOUGLAS        LGT SNOW N/A N/A N/A W10       30.09R

$$
WYZ021-027>030-104>119-260500-
SOUTHERN WYOMING

CITY           SKY/WX    TMP DP  RH WIND       PRES   REMARKS
EVANSTON       PTCLDY    34  31  88 W23G32    30.21F WCI  22
FORT BRIDGER   CLOUDY    37  34  89 W25G40    30.22S WCI  25
ROCK SPRINGS   CLOUDY    35  30  82 W30G38    30.11R WCI  22
DIXON          CLOUDY    34  26  70 W10       30.17S WCI  26
RAWLINS        CLOUDY    35  28  75 W29G38    30.05R WCI  22
SARATOGA       CLOUDY    36  30  80 W23G31    30.05S WCI  24
LARAMIE        CLOUDY    36  25  64 NW28G37   29.97R WCI  23
CHEYENNE       LGT SNOW  27  23  85 N22G35    30.00R VSB 1   WCI  13
TORRINGTON     CLOUDY    31  27  85 NW24G33   30.04R WCI  17
PINE BLUFFS    LGT SNOW  30  28  93 NW18G24   30.03R WCI  18

$$



USA.gov is the U.S. government's official web portal to all federal, state and local government web resources and services.